EW1556 Weather Reports


Display with metric or nautical units.
time (UTC)temp
F
wind
direction
speed
MPH
gust
MPH
rain 1hr
in
rain 24hr
in
rain mn
in
humidity
%
barometer
mb
20260902170015 63 73 1.0 7.0 0.00 0.01 0.00 58 1006.3
20260902164515 62 84 3.0 5.0 0.00 0.01 0.00 57 1006.4
20260902163010 62 102 3.0 6.0 0.00 0.01 0.00 59 1006.5
20260902161510 61 131 1.0 6.0 0.00 0.01 0.00 61 1006.6
20260902160009 60 108 2.0 6.0 0.00 0.01 0.00 62 1006.7
20260902154503 60 126 4.0 7.0 0.00 0.01 0.00 65 1006.9
20260902153100 58 126 4.0 6.0 0.00 0.01 0.00 69 1007.1
20260902151600 57 135 0.0 0.0 0.00 0.01 0.00 71 1007.1
20260902150057 55 139 0.0 0.0 0.00 0.01 0.00 73 1007.3
20260902144556 54 137 0.0 2.0 0.00 0.01 0.00 75 1007.4
20260902143056 53 129 1.0 2.0 0.00 0.01 0.00 78 1007.6
20260902141559 53 233 0.0 0.0 0.00 0.01 0.00 76 1007.5
20260902140053 0 0.0 0.0 0.00 0.01 0.00 1007.6
20260902134547 0 0.0 0.0 0.00 0.07 0.00 1007.7
20260902133046 0 0.0 0.0 0.00 0.07 0.00 1007.9
20260902131541 51 240 1.0 4.0 0.00 0.07 0.00 77 1007.8
20260902130041 50 266 2.0 5.0 0.00 0.07 0.00 79 1007.8
20260902124541 50 240 1.0 3.0 0.00 0.07 0.00 78 1008.0
20260902123037 51 221 1.0 3.0 0.00 0.07 0.00 76 1008.1
20260902121534 52 278 1.0 3.0 0.00 0.07 0.00 75 1008.0
20260902120030 51 280 2.0 4.0 0.00 0.07 0.00 76 1008.2
20260902114534 52 281 3.0 5.0 0.00 0.07 0.00 75 1008.2
20260902113026 54 271 2.0 7.0 0.00 0.07 0.00 72 1008.2
20260902111531 55 241 2.0 6.0 0.00 0.07 0.00 72 1008.3
20260902110018 55 278 3.0 8.0 0.00 0.07 0.00 71 1008.3
20260902104523 55 255 3.0 7.0 0.00 0.07 0.00 70 1008.1
20260902103013 56 248 5.0 9.0 0.00 0.07 0.00 69 1008.0
20260902101512 56 260 6.0 11.0 0.00 0.07 0.00 69 1008.0
20260902100009 57 250 7.0 12.0 0.00 0.07 0.00 68 1008.2
20260902094517 57 269 7.0 11.0 0.00 0.07 0.00 68 1008.1
20260902093005 58 259 8.0 12.0 0.00 0.07 0.00 67 1008.4
20260902091505 58 268 8.0 11.0 0.00 0.07 0.00 67 1008.4
20260902090004 58 255 7.0 10.0 0.00 0.07 0.00 66 1008.4
20260902084503 58 267 6.0 11.0 0.00 0.07 0.00 66 1008.3
20260902083002 58 263 6.0 11.0 0.00 0.07 0.00 66 1008.2
20260902081506 58 256 7.0 10.0 0.00 0.07 0.00 67 1008.1
20260902080109 58 258 6.0 10.0 0.00 0.07 0.00 67 1008.3
20260902074559 58 258 5.0 8.0 0.00 0.07 0.00 67 1008.4
20260902073058 58 263 7.0 15.0 0.00 0.07 0.00 66 1008.4
20260902071558 58 273 9.0 14.0 0.00 0.07 0.00 66 1008.3
20260902070059 58 283 7.0 12.0 0.00 0.07 0.00 65 1008.6
20260902064601 58 287 7.0 10.0 0.00 0.07 0.07 65 1008.8
20260902063050 59 300 6.0 13.0 0.00 0.07 0.07 65 1008.9
20260902061600 59 288 9.0 14.0 0.00 0.07 0.07 66 1008.8
20260902060047 60 285 15.0 22.0 0.00 0.07 0.07 65 1008.5
20260902054552 60 288 14.0 20.0 0.00 0.07 0.07 65 1008.6
20260902053045 60 293 14.0 22.0 0.00 0.07 0.07 65 1008.3
20260902051542 60 292 15.0 24.0 0.00 0.07 0.07 65 1008.2
20260902050041 60 287 11.0 19.0 0.01 0.07 0.07 66 1008.5
20260902044537 60 293 9.0 20.0 0.01 0.07 0.07 64 1008.1
20260902043036 60 290 9.0 15.0 0.01 0.07 0.07 65 1007.7
20260902041535 61 274 6.0 12.0 0.01 0.07 0.07 63 1007.8
20260902040034 62 278 4.0 11.0 0.00 0.06 0.06 60 1007.7
20260902034532 62 290 6.0 9.0 0.00 0.06 0.06 58 1007.3
20260902033038 63 293 10.0 14.0 0.00 0.06 0.06 57 1007.0
20260902031533 63 316 9.0 17.0 0.00 0.06 0.06 57 1006.8
20260902030028 63 292 12.0 20.0 0.00 0.06 0.06 56 1006.2
20260902024528 64 298 15.0 25.0 0.00 0.06 0.06 56 1006.0
20260902023028 64 277 12.0 18.0 0.00 0.06 0.06 55 1006.2
20260902021534 65 279 12.0 19.0 0.00 0.06 0.06 54 1006.4
20260902020026 65 304 9.0 18.0 0.00 0.06 0.06 52 1006.3
20260902014535 66 300 10.0 20.0 0.00 0.06 0.06 51 1006.2
20260902013027 67 288 15.0 22.0 0.00 0.06 0.06 50 1005.8
20260902011535 69 305 7.0 16.0 0.00 0.06 0.06 48 1005.4
20260902010041 70 293 11.0 20.0 0.00 0.06 0.06 46 1005.3
20260902004532 71 304 10.0 19.0 0.00 0.06 0.06 44 1005.0
20260902003024 72 299 11.0 19.0 0.00 0.06 0.06 42 1004.8
20260902001524 74 302 13.0 20.0 0.00 0.06 0.06 40 1004.9
20260902000122 75 275 14.0 22.0 0.00 0.06 0.06 38 1004.6
20260901234546 75 293 13.0 20.0 0.00 0.06 0.06 39 1004.6
20260901233020 76 293 10.0 19.0 0.00 0.06 0.06 37 1004.6
20260901231528 76 297 13.0 20.0 0.00 0.06 0.06 36 1004.7
20260901230020 77 281 13.0 22.0 0.00 0.06 0.06 34 1004.6
20260901224525 77 291 14.0 19.0 0.00 0.06 0.06 35 1004.6
20260901223032 77 296 14.0 24.0 0.00 0.06 0.06 33 1004.7
20260901221524 77 300 18.0 24.0 0.00 0.06 0.06 34 1004.8
20260901220019 78 295 11.0 20.0 0.00 0.06 0.06 33 1004.6
20260901214517 78 297 13.0 24.0 0.00 0.06 0.06 32 1004.6
20260901213016 80 277 15.0 20.0 0.00 0.06 0.06 29 1004.7
20260901211515 79 302 13.0 21.0 0.00 0.06 0.06 28 1004.7
20260901210012 79 300 14.0 21.0 0.00 0.06 0.06 30 1004.7
20260901204514 79 288 14.0 20.0 0.00 0.06 0.06 31 1005.0
20260901203016 78 295 11.0 18.0 0.00 0.06 0.06 32 1005.2
20260901201504 78 284 10.0 14.0 0.00 0.06 0.06 32 1005.3
20260901200107 77 277 9.0 17.0 0.00 0.06 0.06 34 1005.5
20260901194605 76 293 9.0 20.0 0.00 0.06 0.06 36 1005.7
20260901193054 75 302 13.0 19.0 0.00 0.06 0.06 39 1006.1
20260901191553 75 298 13.0 19.0 0.00 0.06 0.06 40 1006.3
20260901190104 75 291 15.0 22.0 0.00 0.06 0.06 38 1006.5
20260901184549 74 280 11.0 18.0 0.00 0.06 0.06 42 1006.6
20260901183048 72 268 11.0 15.0 0.00 0.06 0.06 43 1006.8
20260901181550 72 285 8.0 15.0 0.00 0.06 0.06 44 1007.0
20260901180041 72 286 10.0 18.0 0.00 0.06 0.06 45 1007.0
20260901174538 71 295 11.0 18.0 0.00 0.06 0.06 45 1006.9
20260901173048 70 260 12.0 20.0 0.00 0.06 0.06 46 1006.9
20260901171534 68 259 4.0 10.0 0.00 0.06 0.06 46 1006.9